COMPLETED DISPATCHED CALLS FOR SERVICE

Welcome to the Jacksonville Sheriff’s Office Completed Dispatched Calls for Service webpage. This page displays calls for service made to the Jacksonville Sheriff's Office that have recently been completed. The data on this page is refreshed automatically.

This information is not intended to be used as official crime data. This program does not provide information about all crimes, and excludes specific incidents such as sexual assaults and child abuse.

Disclaimer: The Jacksonville Sheriff's Office makes every effort to produce and publish current and accurate information. No warranties, expressed or implied, are provided for the data herein, its use, or its interpretation. The services provided are for informational purposes only and should not be relied on for any type of legal action.

Last refreshed 5/29 11:08:57

Incident # Dispatched Block Address Signal Call Description  
160529346544 5-29 11:02 100 W DUVAL ST 9 THEFT
160529346528 5-29 10:50 1700 LAKE SHORE BLVD 1066 CANCEL
160529346480 5-29 10:45 LAS ROBIDA DR AND MATANZAS WAY 13 SUSPICIOUS PERSON
160529346523 5-29 10:45 4000 SPIRES AVE 63 DISPUTE
160529346512 5-29 10:43 7700 NORMANDY BLVD 1066 CANCEL
160529346518 5-29 10:43 4100 HECKSCHER DR 38 TRAFFIC ASSIGNMENT
160529346456 5-29 10:34 8000 ATLANTIC BLVD 63 DISPUTE
160529346504 5-29 10:34 N I295 EXPWY AND S ST JOHNS BLUFF RD 96 ASSIST MOTORIST
160529346507 5-29 10:29 900 FOX CHAPEL LN 1066 CANCEL
160529346506 5-29 10:28 S I95 EXPWY AND S I295 EXPWY 16 ROAD OBSTRUCTION
160529346503 5-29 10:27 7900 PAUL JONES DR 88 ASSAULT
160529346500 5-29 10:26 CECIL COMMERCE CENTER PKWY AND 103RD ST 12 RECKLESS DRIVER
160529346502 5-29 10:26 8500 ARGYLE BUSINESS LOOP 54 ILLEGALLY PARKED CAR
160529346492 5-29 10:20 3200 TIGER HOLE RD 27 MENTALLY ILL PERSON
160529346494 5-29 10:20 1800 CARAVAN TRL 63 DISPUTE
160529346429 5-29 10:20 8900 S MACARTHUR CT 22 DOMESTIC
160529346489 5-29 10:14 8100 S OLD KINGS RD 63 DISPUTE
160529346486 5-29 10:08 1200 DUNN AVE 1066 CANCEL
160529346424 5-29 10:08 1400 DUNNS LAKE DR 19 ANIMAL INVESTIGATION
160529346464 5-29 10:08 400 N SAN PABLO RD 19 ANIMAL INVESTIGATION
160529346483 5-29 10:06 200 E FORSYTH ST 1066 CANCEL
160529346435 5-29 10:03 1700 W 2ND ST 63 DISPUTE
160529346477 5-29 10:02 11600 WYNNFIELD LAKES CIR 1066 CANCEL
160529346469 5-29 09:53 4200 VICTOR ST 37 UNVERIFIED 911 CALL
160529346471 5-29 09:53 2100 W DUNES WAY DR 1066 CANCEL
160529346376 5-29 09:53 W 45TH ST AND MONCRIEF RD 10 VEHICLE THEFT
160529346444 5-29 09:51 300 DELMONTE ST 63 DISPUTE
160529346470 5-29 09:50 10200 RIVER MARSH DR 9 THEFT
160529346468 5-29 09:48 3900 COTTONWOOD LN 22 DOMESTIC
160529346343 5-29 09:48 11500 N MAIN ST 63 DISPUTE
160529346415 5-29 09:44 HUFFMAN BLVD AND BEACH BLVD 19 ANIMAL INVESTIGATION
160529346440 5-29 09:42 4500 SAN JUAN AVE 13 SUSPICIOUS PERSON
160529346458 5-29 09:41 8200 SAND POINT DR S 50 FOUND/ABANDONED PROPERTY
160529346423 5-29 09:31 500 PARK ST 76 ASSIST OTHER AGENCY
160529346408 5-29 09:29 JUSTINA TER AND HOLLY BELL DR 63 DISPUTE
160529346432 5-29 09:29 4200 S KEY VEGA DR 0 63 ARMED DISPUTE
160529346426 5-29 09:27 4000 LENOX AVE 1066 CANCEL
160529346407 5-29 09:23 5300 TIMUQUANA RD 14R VANDALISM RESIDENCE
160529346425 5-29 09:21 8800 PERIMETER PARK BLVD 63 DISPUTE
160529346410 5-29 09:19 ZOO PKWY AND N MAIN ST 16 ROAD OBSTRUCTION
160529346416 5-29 09:14 6300 MERCADO DR 2 22 DOMESTIC DISTURBANCE
160529346342 5-29 09:11 9500 LEM TURNER RD 21B BURGLARY BUSINESS
160529346413 5-29 09:11 N I295 EXPWY AND ATLANTIC BLVD 96 ASSIST MOTORIST
160529346406 5-29 09:05 7900 SOUTHSIDE BLVD 4 AUTO CRASH
160529346377 5-29 09:04 9100 103RD ST 63 DISPUTE
160529346405 5-29 09:04 SOUTHSIDE BLVD AND BAYMEADOWS RD 4 AUTO CRASH
160529346404 5-29 09:03 N I295 EXPWY AND PULASKI RD 12 RECKLESS DRIVER
160529346367 5-29 09:03 7800 PAUL JONES DR 22 DOMESTIC
160529346389 5-29 08:59 1000 ARCO DR 63 DISPUTE
160529346399 5-29 08:59 100 S MAIN ST 16 ROAD OBSTRUCTION
160529346400 5-29 08:59 4300 SOUTHSIDE BLVD 13 SUSPICIOUS PERSON
160529346313 5-29 08:54 11600 SAIL AVE 64 NOISE COMPLAINT
160529346395 5-29 08:54 PARK ST AND LAKE SHORE BLVD 12 RECKLESS DRIVER
160529346392 5-29 08:48 4100 N LAZY HOLLOW LN 1066 CANCEL
160529346391 5-29 08:46 1000 ARCO DR 2288 DOMESTIC DISPUTE WITH/ASSAULT
160529346371 5-29 08:38 3200 PLYMOUTH ST 37 UNVERIFIED 911 CALL
160529346379 5-29 08:37 MONCRIEF RD AND W EDGEWOOD AVE 1050 TRAFFIC STOP
160529346348 5-29 08:36 8000 VIOLET WILLOW LN 11 ABANDONED VEHICLE
160529346370 5-29 08:34 8100 BLANDING BLVD 3 HIT AND RUN CRASH
160529346319 5-29 08:34 12200 NEW BERLIN RD 4 63 CRASH INVOLVING DISPUTE
160529346373 5-29 08:34 1000 DORCHESTER ST 14C VANDALISM CONVEYANCE
160529346354 5-29 08:33 6700 COLLINS RD 14RJ VANDALISM RESIDENCE JUST OCCURRED
160529346344 5-29 08:32 5100 ROANOKE BLVD 8 MISSING PERSON
160529346362 5-29 08:24 12000 WREN HOLLOW CT 14RT VANDALISM RESIDENCE TELESERVE
160529346350 5-29 08:21 4400 SAN JUAN AVE 63 DISPUTE
160529346360 5-29 08:19 BAYMEADOWS RD AND S OLD KINGS RD 12 RECKLESS DRIVER
160529346349 5-29 08:19 100 W REEDING RIDGE DR 95IDT IDENTITY THEFT TELESERVE
160529346357 5-29 08:18 2200 W 17TH ST 60 SUICIDE OR ATTEMPT
160529346355 5-29 08:16 3900 BAYMEADOWS RD 1066 CANCEL
160529346339 5-29 08:15 9300 CULPEPER AVE 21C BURGLARY CONVEYANCE
160529346318 5-29 08:05 9100 FITZWALTER RD 63 DISPUTE
160529346321 5-29 08:02 5000 WESTCHASE CT 19 ANIMAL INVESTIGATION
160529346338 5-29 07:58 2200 MAYPORT RD 96 ASSIST MOTORIST
160529346337 5-29 07:56 1000 MONUMENT RD 13 SUSPICIOUS PERSON
160529346336 5-29 07:55 800 PRUDENTIAL DR 13 SUSPICIOUS PERSON
160529346323 5-29 07:55 7100 CRANE AVE 0 63 ARMED DISPUTE
160529346326 5-29 07:46 7300 CEDAR POINT RD 27 MENTALLY ILL PERSON
160529346324 5-29 07:46 10500 ASHBY RD 13 SUSPICIOUS PERSON
160529346328 5-29 07:46 I95N AND SOUTHSIDE BLVD 96 ASSIST MOTORIST
160529346269 5-29 07:45 7900 ORIOLE ST 13 SUSPICIOUS PERSON
160529346304 5-29 07:42 DECOTTES ST AND CONE ST 4 AUTO CRASH
160529346317 5-29 07:40 10300 MAYAN DR 9T THEFT (TELESERVE)
160529346315 5-29 07:37 3600 S UNIVERSITY BLVD 63 DISPUTE
160529346316 5-29 07:35 7800 ATLANTIC BLVD 19 ANIMAL INVESTIGATION
160529346291 5-29 07:29 8900 ARCADE AVE 10 VEHICLE THEFT
160529346281 5-29 07:26 W MONROE ST AND N MAIN ST 21C BURGLARY CONVEYANCE
160529346296 5-29 07:24 7800 GREGORY DR 22 DOMESTIC
160529346309 5-29 07:19 400 CENTURY 21 DR 2288 DOMESTIC DISPUTE WITH/ASSAULT
160529346295 5-29 07:12 1100 DUNN AVE 4 AUTO CRASH
160529346301 5-29 07:12 3000 W EDGEWOOD AVE 76 ASSIST OTHER AGENCY
160529346294 5-29 07:00 W 10TH ST AND N MYRTLE AVE 16 ROAD OBSTRUCTION
160529346293 5-29 06:58 5900 OLD TIMUQUANA RD 10J VEHICLE THEFT JUST OCCURRED
160529346285 5-29 06:55 13500 STONE POND DR 21C BURGLARY CONVEYANCE
160529346284 5-29 06:49 6500 TOWNSEND RD 4 AUTO CRASH
160529346288 5-29 06:48 400 GOLFAIR BLVD 16 ROAD OBSTRUCTION
160529346271 5-29 06:45 100 W 43RD ST 1066 CANCEL
160529346286 5-29 06:43 N I295 EXPWY AND ALTA DR 12 RECKLESS DRIVER
160529346282 5-29 06:39 6200 N SPRINKLE DR 37 UNVERIFIED 911 CALL
160529346279 5-29 06:37 1200 FROMAGE WAY 54 ILLEGALLY PARKED CAR
160529346273 5-29 06:25 100 W UNION ST 88P ASSAULT IN PROGRESS
160529346272 5-29 06:22 6200 ST AUGUSTINE RD 37 UNVERIFIED 911 CALL
160529346267 5-29 06:17 5900 SOLOMON RD 1066 CANCEL
160529346268 5-29 06:15 2300 W EDGEWOOD AVE 2288 DOMESTIC DISPUTE WITH/ASSAULT
160529346254 5-29 05:57 BEACH BLVD AND S KERNAN BLVD 13 SUSPICIOUS PERSON
160529346263 5-29 05:57 BLANDING BLVD AND COLLINS RD 1050 TRAFFIC STOP
160529346262 5-29 05:56 BOULEVARD AND MARTIN LUTHER KING JR PKWY 1050 TRAFFIC STOP
160529346246 5-29 05:55 4400 TIMUQUANA RD 63 DISPUTE
160529346261 5-29 05:52 4300 PUTNAM AVE 2 IMPAIRED/INTOXICATED
160529346238 5-29 05:52 700 ASSISI LN 6388 DISPUTE WITH ASSAULT
160529346256 5-29 05:50 CLEVELAND RD AND W MONCRIEF RD 3388 DISCHARGING FIREARM AT PERSON
160529346255 5-29 05:47 W 5TH ST AND N MYRTLE AVE 63 DISPUTE
160529346248 5-29 05:46 100 W 43RD ST 2 IMPAIRED/INTOXICATED
160529346250 5-29 05:40 4900 SUNBEAM RD 21C BURGLARY CONVEYANCE
160529346249 5-29 05:39 NORMANDY BLVD AND CECIL COMMERCE CENTER PKWY 16 ROAD OBSTRUCTION
160529346247 5-29 05:36 4200 VICTOR ST 37 UNVERIFIED 911 CALL
160529346236 5-29 05:26 8800 PERIMETER PARK BLVD 14B VANDALISM BUSINESS
160529346222 5-29 05:25 8200 W PRINCETON SQUARE BLVD 63 DISPUTE
160529346239 5-29 05:21 S CHAFFEE RD AND CRYSTAL SPRINGS RD 13 SUSPICIOUS PERSON
160529346228 5-29 05:04 SAN PABLO PKWY AND CROSSWATER BLVD 1 IMPAIRED/DRUNK DRIVER
160529346226 5-29 05:02 E KEN KNIGHT DR AND W MONCRIEF RD 0 13 ARMED SUSPICIOUS PERSON
160529346223 5-29 04:57 100 N BUCKMAN BRG 12 RECKLESS DRIVER
160529346214 5-29 04:43 14500 YELLOW BLUFF RD 63 DISPUTE
160529346201 5-29 04:42 1000 BROWARD RD 63 DISPUTE
160529346220 5-29 04:41 4000 BUNNELL DR 63 DISPUTE
160529346219 5-29 04:40 7600 MERRILL RD 3388 DISCHARGING FIREARM AT PERSON
160529346216 5-29 04:38 13300 BEACH BLVD 60 SUICIDE OR ATTEMPT
160529346217 5-29 04:38 3000 W 1ST ST 33 DISCHARGING OF FIREARM
160529346213 5-29 04:33 1200 LABELLE ST 76 ASSIST OTHER AGENCY
160529346212 5-29 04:33 7700 MERRILL RD 33 DISCHARGING OF FIREARM
160529346211 5-29 04:32 2800 WEDGEFIELD BLVD 33 DISCHARGING OF FIREARM
160529346207 5-29 04:30 8700 5TH AVE 33 DISCHARGING OF FIREARM
160529346209 5-29 04:30 10800 HARTS RD 88J ASSAULT JUST OCCURRED
160529346178 5-29 04:28 1300 MALVERNE AVE 2288 DOMESTIC DISPUTE WITH/ASSAULT
160529346208 5-29 04:28 E 10TH ST AND N MARKET ST 1050 TRAFFIC STOP
160529346195 5-29 04:25 1400 GOLF FOREST DR 63 DISPUTE
160529346206 5-29 04:23 N I295 EXPWY AND COLLINS RD 96 ASSIST MOTORIST
160529346189 5-29 04:21 5400 TIMUQUANA RD 13 SUSPICIOUS PERSON
160529346175 5-29 04:20 14000 BEACH BLVD 63 DISPUTE
160529346191 5-29 04:19 2600 UNIVERSITY BLVD 56 JUVENILE COMPLAINT
160529346203 5-29 04:18 4000 BUNNELL DR 13 SUSPICIOUS PERSON
160529346155 5-29 04:15 4800 LOUISA TER 63 DISPUTE
160529346199 5-29 04:13 7900 MERRILL RD 2 63 DISPUTE IMPAIRED/INTOXICATED
160529346197 5-29 04:13 2200 W EDGEWOOD AVE 60 SUICIDE OR ATTEMPT
160529346181 5-29 04:06 2300 E JUSTIN RD 13 SUSPICIOUS PERSON
160529346179 5-29 04:05 7500 POWERS AVE 2 22 DOMESTIC DISTURBANCE
160529346185 5-29 04:04 1800 DOYON CT 88J ASSAULT JUST OCCURRED
160529346192 5-29 04:04 11000 E PINE ESTATES RD 60 SUICIDE OR ATTEMPT
160529346166 5-29 04:00 4400 ANSON DR 64 NOISE COMPLAINT
160529346190 5-29 03:59 MILL CREEK RD AND LONE STAR RD 1050 TRAFFIC STOP
160529346187 5-29 03:58 MILLCREEK/LONESTAR 1050 TRAFFIC STOP
160529346131 5-29 03:58 8900 CANOPY OAKS DR 64 NOISE COMPLAINT
160529346162 5-29 03:52 3700 S UNIVERSITY BLVD 64 NOISE COMPLAINT
160529346174 5-29 03:52 7300 LEM TURNER RD 63 DISPUTE
160529346183 5-29 03:50 5900 LENOX AVE 60 SUICIDE OR ATTEMPT
160529346182 5-29 03:50 2500 MONCRIEF RD 22 DOMESTIC
160529346176 5-29 03:43 2600 TROLLIE LN 64 NOISE COMPLAINT
160529346177 5-29 03:42 HAINES ST AND E 8TH ST 96 ASSIST MOTORIST
160529346161 5-29 03:38 4200 FRANCIS RD 2 63 DISPUTE IMPAIRED/INTOXICATED
160529346083 5-29 03:37 4600 S LENOIR AVE 21C BURGLARY CONVEYANCE
160529346160 5-29 03:36 13300 BEACH BLVD 22 DOMESTIC
160529346169 5-29 03:36 8500 BLANDING BLVD 63 DISPUTE
160529346107 5-29 03:34 1800 E 24TH ST 8 MISSING PERSON
160529346170 5-29 03:31 DUNN AVE AND MONACO DR 1050 TRAFFIC STOP
160529346167 5-29 03:29 400 NIXON ST 13 SUSPICIOUS PERSON
160529346168 5-29 03:27 7700 HECKSCHER DR 4 53 TRAFFIC CRASH PERSON INJURED
160529346082 5-29 03:27 4500 POST ST 3 HIT AND RUN CRASH
160529346165 5-29 03:26 100 N BROOKVIEW DR 0 23CJ ARMED ROBBERY CARJACKING JUST OCCURRED
160529346157 5-29 03:23 8200 HECKSCHER DR 4 AUTO CRASH
160529346154 5-29 03:22 N I295 EXPWY AND ROOSEVELT BLVD 12 RECKLESS DRIVER
160529346159 5-29 03:22 4300 LAKE WOODBOURNE DR 1050 TRAFFIC STOP
160529346156 5-29 03:21 3400 NIGHTSCAPE CIR 13 SUSPICIOUS PERSON
160529346143 5-29 03:20 ASSISI LN AND MAYPORT RD 10 VEHICLE THEFT
160529346151 5-29 03:17 11000 ARROWBROOK LN 1066 CANCEL
160529346150 5-29 03:16 1700 HODGES BLVD 63 DISPUTE
160529346147 5-29 03:16 RIBAULT SCENIC DR AND VAN GUNDY RD 33 DISCHARGING OF FIREARM
160529346142 5-29 03:11 4100 BELFORT RD 9J THEFT JUST OCCURRED
160529346135 5-29 03:11 11000 E PINE ESTATES RD 2 63 DISPUTE IMPAIRED/INTOXICATED
160529346139 5-29 03:10 6100 CARLTON RD 13 SUSPICIOUS PERSON
160529346141 5-29 03:10 8700 BEACH BLVD 1066 CANCEL
160529346145 5-29 03:09 400 WADE DR 1066 CANCEL
160529346130 5-29 03:09 6000 POWERS AVE 63 DISPUTE
160529346144 5-29 03:07 SAN JOSE BLVD AND CROWN POINT RD 1050 TRAFFIC STOP
160529346119 5-29 03:02 200 E COAST LINE DR 6388 DISPUTE WITH ASSAULT
160529346133 5-29 03:02 1700 HODGES BLVD 21RJ BURGLARY RESIDENCE JUST OCCURRED
160529346132 5-29 03:02 PARENTAL HOME RD AND DEAN RD 2 IMPAIRED/INTOXICATED
160529346121 5-29 02:59 6900 S ORIELY DR 63 DISPUTE
160529346127 5-29 02:57 100 N HART BRG 13 SUSPICIOUS PERSON
160529346128 5-29 02:54 5100 COLLINS RD 13 SUSPICIOUS PERSON
160529346125 5-29 02:52 MERRILL RD AND TOWNSEND BLVD 1050 TRAFFIC STOP
160529346122 5-29 02:51 4300 S UNIVERSITY BLVD 57 PERSON CALLING FOR HELP
160529346112 5-29 02:50 1500 WIGMORE ST 22 DOMESTIC
160529346120 5-29 02:49 1700 HODGES BLVD 63 DISPUTE
160529346116 5-29 02:48 100 S HART BRG 13 SUSPICIOUS PERSON
160529346117 5-29 02:47 3500 ROCKWOOD DR 13 SUSPICIOUS PERSON
160529346087 5-29 02:43 8000 W RAMONA BLVD 96 ASSIST MOTORIST
160529346043 5-29 02:42 3200 NEW KINGS RD 63 DISPUTE
160529346102 5-29 02:40 300 E ASHLEY ST 64 NOISE COMPLAINT
160529346105 5-29 02:40 NELSON ST AND ERNEST ST 13 SUSPICIOUS PERSON
160529346050 5-29 02:38 6500 RAMONA BLVD 2 63 DISPUTE IMPAIRED/INTOXICATED
160529345991 5-29 02:37 2500 WYLENE ST 8 MISSING PERSON
160529346091 5-29 02:35 BEACH BLVD AND SOUTHSIDE BLVD 4 AUTO CRASH
160529346072 5-29 02:35 2200 GLEN GARDNER DR 2 63 DISPUTE IMPAIRED/INTOXICATED
160529346100 5-29 02:33 100 W INDEPENDENT DR 17 PERSON DOWN OR SICK
160529346093 5-29 02:32 W 19TH ST AND N DAVIS ST 0 63 ARMED DISPUTE
160529346044 5-29 02:30 1300 W 15TH ST 2 22 DOMESTIC DISTURBANCE
160529346094 5-29 02:27 6600 103RD ST 64 NOISE COMPLAINT
160529346071 5-29 02:27 1400 CHERRY ST 63 DISPUTE
160529346097 5-29 02:26 1000 ATLANTIC BLVD 1050 TRAFFIC STOP
160529346096 5-29 02:26 HART EXPWY AND ATLANTIC BLVD 12 RECKLESS DRIVER
160529346058 5-29 02:25 11600 SAN JOSE BLVD 63 DISPUTE
160529346085 5-29 02:25 7800 GREGORY DR 13 SUSPICIOUS PERSON
160529346092 5-29 02:25 4200 ST JOHNS AVE 77 WELL BEING CHECK
160529346095 5-29 02:24 MONCRIEF RD AND W EDGEWOOD AVE 12 RECKLESS DRIVER
160529346060 5-29 02:22 LEE RD AND ATLANTIC BLVD 80 PROSTITUTION (ONLY)
160529346090 5-29 02:22 2500 ATLANTIC BLVD 2 63 DISPUTE IMPAIRED/INTOXICATED
160529346089 5-29 02:20 SAN PABLO PKWY AND CROSSWATER BLVD 4 AUTO CRASH
160529346088 5-29 02:19 3500 S ST JOHNS BLUFF RD 1066 CANCEL
160529346078 5-29 02:19 4900 W UNIVERSITY BLVD 14B VANDALISM BUSINESS
160529346086 5-29 02:19 5100 COLLINS RD 2288 DOMESTIC DISPUTE WITH/ASSAULT
160529346053 5-29 02:15 10200 OLD ST AUGUSTINE RD 64 NOISE COMPLAINT
160529346079 5-29 02:11 MONUMENT RD AND S I295 EXPWY 4 53 TRAFFIC CRASH PERSON INJURED
160529346067 5-29 02:11 1800 W 11TH ST 22 DOMESTIC
160529346077 5-29 02:10 1000 MONUMENT RD 4 53 TRAFFIC CRASH PERSON INJURED
160529346076 5-29 02:09 7100 BLOXHAM AVE 76 ASSIST OTHER AGENCY
160529346075 5-29 02:06 ATLANTIC BLVD AND JOHNSTON AVE 1050 TRAFFIC STOP
160529346068 5-29 02:05 7000 BONNEVAL RD 63 DISPUTE
160529346062 5-29 02:01 5700 MONCRIEF RD 0 63 ARMED DISPUTE
160529346070 5-29 01:59 RIVER STORY RD AND MANDARIN RD 13 SUSPICIOUS PERSON
160529346064 5-29 01:57 14000 ATLANTIC BLVD 2 63 DISPUTE IMPAIRED/INTOXICATED
160529346032 5-29 01:55 4100 SPORTSMAN CLUB RD 4 AUTO CRASH
160529345993 5-29 01:55 11600 W ANCONA DR 90 FIREWORKS
160529346059 5-29 01:52 N EDGEWOOD AVE AND OLD KINGS RD 1050 TRAFFIC STOP
160529346057 5-29 01:52 10800 KEY HAVEN BLVD 64 NOISE COMPLAINT
160529346056 5-29 01:50 SOUTHSIDE BLVD AND IVEY RD 16 ROAD OBSTRUCTION
160529345996 5-29 01:47 8500 BLANDING BLVD 63 DISPUTE
160529346052 5-29 01:45 3500 S ST JOHNS BLUFF RD 2288 DOMESTIC DISPUTE WITH/ASSAULT
160529346040 5-29 01:44 1300 MALVERNE AVE 2 63 DISPUTE IMPAIRED/INTOXICATED
160529346000 5-29 01:44 3800 AUTUMN LEAF CT 64 NOISE COMPLAINT
160529346049 5-29 01:44 3500 S ST JOHNS BLUFF RD 63 DISPUTE
160529346051 5-29 01:43 1800 COLBY AVE 17 PERSON DOWN OR SICK
160529346047 5-29 01:41 3900 W RUBY DR 13 SUSPICIOUS PERSON
160529346046 5-29 01:38 103RD ST AND HILLMAN DR 4 AUTO CRASH
160529346045 5-29 01:37 11000 BEACH BLVD 1050 TRAFFIC STOP
160529346038 5-29 01:36 N I295 EXPWY AND PRITCHARD RD 4 53 TRAFFIC CRASH PERSON INJURED
160529346035 5-29 01:36 E I10 EXPWY AND CECIL COMMERCE CENTER PKWY 12 RECKLESS DRIVER
160529346042 5-29 01:35 10500 LEM TURNER RD 21CJ BURGLARY CONVEYANCE JUST OCCURRED
160529345973 5-29 01:35 3600 KIRKPATRICK CIR 22 DOMESTIC
160529345921 5-29 01:31 8000 ARLINGTON EXPWY 88 ASSAULT
160529346036 5-29 01:31 SOUTH OF MEMORIAL 63 DISPUTE
160529345985 5-29 01:29 N MAIN ST AND W 6TH ST 64 NOISE COMPLAINT
160529346033 5-29 01:28 8700 MATHONIA AVE 76 ASSIST OTHER AGENCY
160529346011 5-29 01:28 5400 TELFAIR ST 64 NOISE COMPLAINT
160529346030 5-29 01:25 PIERCE ARROW CT AND PIERCE ARROW DR 13 SUSPICIOUS PERSON
160529346003 5-29 01:24 7200 ARLINGTON EXPWY 27 MENTALLY ILL PERSON
160529346029 5-29 01:23 500 E ADAMS ST 73 DRUG INVESTIGATION
160529346027 5-29 01:22 8300 S CENTURY POINT DR 76 ASSIST OTHER AGENCY
160529346016 5-29 01:21 5800 118TH ST 33 DISCHARGING OF FIREARM
160529346026 5-29 01:21 SAN JOSE BLVD AND CLAIRE LN 1050 TRAFFIC STOP
160529346021 5-29 01:20 1600 SPRING OAKS LN 76 ASSIST OTHER AGENCY
160529346015 5-29 01:19 2800 W 6TH ST 37 UNVERIFIED 911 CALL
160529346023 5-29 01:18 5400 S OLD MIDDLEBURG RD 96 ASSIST MOTORIST
160529346020 5-29 01:18 UNIVERSITY BLVD AND LOS SANTOS WAY 3 HIT AND RUN CRASH
160529346010 5-29 01:18 1900 HUBBARD ST 22 DOMESTIC
160529346022 5-29 01:18 13700 BEACH BLVD 10R VEHICLE THEFT RECOVERY
160529346019 5-29 01:16 1400 AIRPORT RD 1050 TRAFFIC STOP
160529346017 5-29 01:15 2900 E BAYSHORE DR 63 DISPUTE
160529346014 5-29 01:12 9600 N VILLIERS DR 2288 DOMESTIC DISPUTE WITH/ASSAULT
160529345966 5-29 01:12 2000 CAMDEN AVE 8 MISSING PERSON
160529346006 5-29 01:11 10900 SAN JOSE BLVD 9P THEFT IN PROGRESS
160529346012 5-29 01:10 J TURNER BUTLER BLVD AND BONNEVAL RD 4 AUTO CRASH
160529346008 5-29 01:09 14300 BEACH BLVD 63 DISPUTE
160529345972 5-29 01:08 2000 HODGES BLVD 64 NOISE COMPLAINT
160529345928 5-29 01:08 2600 OLUSTEE ST 64 NOISE COMPLAINT
160529345946 5-29 01:05 6900 W SOUTHERN OAKS DR 64 NOISE COMPLAINT
160529346002 5-29 01:05 9400 FT CAROLINE RD 5388 ASSAULT INVOLVING INJURY
160529345988 5-29 01:04 14500 OLD ST AUGUSTINE RD 49 REPORT TO HOSPITAL
160529346001 5-29 01:03 3200 ZOO PKWY 1050 TRAFFIC STOP
160529345969 5-29 01:03 6900 103RD ST 2 63 DISPUTE IMPAIRED/INTOXICATED
160529345992 5-29 01:01 4500 KENNDLE RD 0 88 ARMED ASSAULT
160529345945 5-29 01:01 1700 HODGES BLVD 13 SUSPICIOUS PERSON
160529345997 5-29 01:01 BROWARD RD AND LEM TURNER RD 13 SUSPICIOUS PERSON
160529345995 5-29 01:01 ROOSEVELT BLVD AND TIMUQUANA RD 1 IMPAIRED/DRUNK DRIVER
160529345989 5-29 00:58 JUSTINA RD AND TECHWOOD DR 64 NOISE COMPLAINT
160529345977 5-29 00:57 600 MONUMENT RD 63 DISPUTE
160529345990 5-29 00:57 2000 HARTRIDGE ST 13 SUSPICIOUS PERSON
160529345954 5-29 00:55 5300 TIMUQUANA RD 14R VANDALISM RESIDENCE
160529345968 5-29 00:55 2800 VENUS ST 22 DOMESTIC
160529345987 5-29 00:55 ROCK BAY DR AND W PINE MOSS RD 1050 TRAFFIC STOP
160529345965 5-29 00:54 700 ASSISI LN 13 SUSPICIOUS PERSON
160529345983 5-29 00:54 2100 LOUISE ST 60 SUICIDE OR ATTEMPT
160529345982 5-29 00:53 2900 MANDARIN MEADOWS DR 76 ASSIST OTHER AGENCY
160529345979 5-29 00:49 W UNIVERSITY BLVD AND MT CARMEL TER 1050 TRAFFIC STOP
160529345976 5-29 00:49 6600 POWERS AVE 88 ASSAULT
160529345970 5-29 00:48 S I95 EXPWY 12 RECKLESS DRIVER
160529345975 5-29 00:48 1600 W 29TH ST 21R BURGLARY RESIDENCE
160529345974 5-29 00:47 10300 LEM TURNER 1050 TRAFFIC STOP
160529345971 5-29 00:46 BUTTERCUP ST AND CALIFORNIA AVE 88P ASSAULT IN PROGRESS
160529345924 5-29 00:43 10800 KEY HAVEN BLVD 64 NOISE COMPLAINT
160529345961 5-29 00:42 7300 103RD ST 13 SUSPICIOUS PERSON
160529345967 5-29 00:42 ARLINGTON EXPWY AND UNIVERSITY BLVD 1050 TRAFFIC STOP
160529345955 5-29 00:42 7200 ARLINGTON EXPWY 63 DISPUTE
160529345941 5-29 00:41 5000 WESTCHASE CT 1066 CANCEL
160529345957 5-29 00:40 5200 CEMETERY RD 33 DISCHARGING OF FIREARM
160529345959 5-29 00:40 5100 CEMETERY RD 33 DISCHARGING OF FIREARM
160529345960 5-29 00:39 103RD ST AND TAMPICO RD 33 DISCHARGING OF FIREARM
160529345956 5-29 00:39 BLASIUS RD AND FAYE RD 12 RECKLESS DRIVER
160529345958 5-29 00:38 EB MATHEWS 16 ROAD OBSTRUCTION
160529345953 5-29 00:38 13700 BEACH BLVD 4 AUTO CRASH
160529345952 5-29 00:36 6900 MERRILL RD 1066 CANCEL
160529345936 5-29 00:35 1000 WINDRIFT LN 64 NOISE COMPLAINT
160529345951 5-29 00:35 W I10 EXPWY AND S I295 EXPWY 96 ASSIST MOTORIST
160529345915 5-29 00:34 2400 JAMMES RD 22 DOMESTIC
160529345949 5-29 00:32 500 W 17TH ST 1 IMPAIRED/DRUNK DRIVER
160529345948 5-29 00:31 N I295 EXPWY AND DUNN AVE 12 RECKLESS DRIVER
160529345944 5-29 00:30 PHILLIPS HWY AND GREENLAND RD 16 ROAD OBSTRUCTION
160529345947 5-29 00:29 W 8TH ST AND FRANCIS ST 60 SUICIDE OR ATTEMPT
160529345937 5-29 00:29 3700 S UNIVERSITY BLVD 64 NOISE COMPLAINT
160528345904 5-29 00:29 200 E 47TH ST 64 NOISE COMPLAINT
160529345938 5-29 00:27 4000 SUNBEAM RD 64 NOISE COMPLAINT
160529345913 5-29 00:27 1200 MULL ST 22 DOMESTIC
160529345931 5-29 00:25 1300 AIRPORT RD 63 DISPUTE
160529345940 5-29 00:25 PINE MOSS RD AND ROCK BAY DR 64 NOISE COMPLAINT
160529345939 5-29 00:24 ST AUGUSTINE RD AND DUNSFORD TER 1050 TRAFFIC STOP
160529345934 5-29 00:22 2600 SRA1A HWY 60 SUICIDE OR ATTEMPT
160529345933 5-29 00:21 103RD ST AND TAMPICO RD 1 IMPAIRED/DRUNK DRIVER
160529345932 5-29 00:21 COLLINS RD AND RAMPART RD 12 RECKLESS DRIVER
160529345930 5-29 00:20 1100 E FROMAGE CIR 2 IMPAIRED/INTOXICATED
160528345909 5-29 00:19 1700 ANNISTON RD 22 DOMESTIC
160529345929 5-29 00:18 9800 BEACH BLVD 13 SUSPICIOUS PERSON
160529345927 5-29 00:15 7700 JASPER AVE 1066 CANCEL
160529345925 5-29 00:13 800 ALDERMAN RD 1066 CANCEL
160529345917 5-29 00:12 10100 BEACH BLVD 63 DISPUTE
160528345894 5-29 00:12 400 AIKEN RD 14C VANDALISM CONVEYANCE
160529345916 5-29 00:11 KUHN RD AND BEAUCLERC RD 63 DISPUTE
160529345922 5-29 00:09 10600 SAN JOSE BLVD 27 MENTALLY ILL PERSON
160529345918 5-29 00:06 6900 WILEY RD 60 SUICIDE OR ATTEMPT
160528345905 5-29 00:05 800 N POYDRAS LN 22 DOMESTIC
160528345892 5-29 00:01 1600 S SWIMMING SALMON PL 13 SUSPICIOUS PERSON
160529345910 5-29 00:01 8900 103RD ST 76 ASSIST OTHER AGENCY
160528345875 5-28 23:59 5600 GREENLAND RD 64 NOISE COMPLAINT
160528345907 5-28 23:59 5500 NETTIE RD 76 ASSIST OTHER AGENCY
160528345906 5-28 23:58 9700 S ORR CT 1066 CANCEL
160528345886 5-28 23:57 ROOSEVELT BLVD AND TIMUQUANA RD 4 AUTO CRASH
160528345901 5-28 23:56 7100 ROOSEVELT BLVD 1050 TRAFFIC STOP
160528345876 5-28 23:55 3200 COLLEGE ST 22 DOMESTIC
160528345893 5-28 23:55 3600 W EVE DR 63 DISPUTE
160528345898 5-28 23:54 500 E ADAMS ST 50 FOUND/ABANDONED PROPERTY
160528345852 5-28 23:54 14500 OLD ST AUGUSTINE RD 73 DRUG INVESTIGATION
160528345895 5-28 23:53 8000 TIMBER POINT DR 64 NOISE COMPLAINT
160528345877 5-28 23:53 1500 E 25TH ST 22 DOMESTIC
160528345838 5-28 23:51 1800 COLBY AVE 10 VEHICLE THEFT
160528345891 5-28 23:50 N SPRINKLE DR AND ROGERO RD 76 ASSIST OTHER AGENCY
160528345884 5-28 23:49 4700 BLACKBURN ST 64 NOISE COMPLAINT
160528345889 5-28 23:49 OLD PLANK RD AND N CAHOON RD 1050 TRAFFIC STOP
160528345888 5-28 23:49 N MAIN ST AND W COLE RD 13 SUSPICIOUS PERSON
160528345885 5-28 23:47 7200 CRANE AVE 63 DISPUTE
160528345887 5-28 23:47 E INDEPENDENT DR AND S NEWNAN ST 1050 TRAFFIC STOP
160528345882 5-28 23:45 10300 WOOD DOVE WAY 64 NOISE COMPLAINT
160528345872 5-28 23:45 11400 E LUMBERJACK CIR 13 SUSPICIOUS PERSON
160528345878 5-28 23:43 ROOSEVELT BLVD AND TIMUQUANA RD 4 AUTO CRASH
160528345840 5-28 23:42 3600 N MAIN ST 64 NOISE COMPLAINT
160528345854 5-28 23:42 8200 DIX ELLIS TRL 50 FOUND/ABANDONED PROPERTY
160528345819 5-28 23:42 700 N MAIN ST 63 DISPUTE
160528345831 5-28 23:42 9900 ATRIUM WAY 63 DISPUTE
160528345810 5-28 23:41 4300 VICTOR ST 2 22 DOMESTIC DISTURBANCE
160528345881 5-28 23:41 110TH ST AND CATOMA ST 76 ASSIST OTHER AGENCY
160528345873 5-28 23:41 1600 W SPRING BRANCH DR 64 NOISE COMPLAINT
160528345862 5-28 23:39 6700 N GENTLE OAKS DR 64 NOISE COMPLAINT
160528345857 5-28 23:39 3500 TOWNSEND BLVD 2 IMPAIRED/INTOXICATED
160528345867 5-28 23:39 5800 ADVENTURE LN 22 DOMESTIC
160528345869 5-28 23:38 7200 POWERS AVE 63 DISPUTE
160528345871 5-28 23:37 W FORSYTH ST AND N LEE ST 12 RECKLESS DRIVER
160528345866 5-28 23:37 4200 W MONCRIEF RD 62 PERSON CUT
160528345874 5-28 23:37 2800 COLLEGE ST 22 DOMESTIC
160528345870 5-28 23:37 12200 W SAGO AVE 13 SUSPICIOUS PERSON
160528345865 5-28 23:35 2800 SYDNEY ST 33 DISCHARGING OF FIREARM
160528345853 5-28 23:35 8000 SOUTHSIDE BLVD 0 22 DOMESTIC DISTURBANCE W/WEAPON
160528345858 5-28 23:34 7500 POWERS AVE 64 NOISE COMPLAINT
160528345841 5-28 23:34 OLD ST AUGUSTINE RD AND LIVINGSTON RD 4 AUTO CRASH
160528345855 5-28 23:33 1000 N LANE AVE 63 DISPUTE
160528345861 5-28 23:31 4700 BLACKBURN ST 64 NOISE COMPLAINT
160528345856 5-28 23:30 N SPRINKLE DR AND ROGERO RD 76 ASSIST OTHER AGENCY
160528345797 5-28 23:29 11900 BRADY RD 64 NOISE COMPLAINT
160528345851 5-28 23:28 4700 BLACKBURN ST 64 NOISE COMPLAINT
160528345850 5-28 23:27 7600 GATE PKWY 12 RECKLESS DRIVER
160528345847 5-28 23:26 100 W UNION ST 4 63 CRASH INVOLVING DISPUTE
160528345849 5-28 23:26 2800 N UNIVERISTY BLVD 13 SUSPICIOUS PERSON
160528345848 5-28 23:26 1000 CHERRY ST 33 DISCHARGING OF FIREARM
160528345834 5-28 23:26 5900 ROOSEVELT BLVD 33 DISCHARGING OF FIREARM
160528345845 5-28 23:25 N ARLINGTON RD AND LILLIAN RD 0 88J ARMED ASSAULT JUST OCCURRED
160528345812 5-28 23:25 2900 POST ST 2 63 DISPUTE IMPAIRED/INTOXICATED
160528345843 5-28 23:23 CAMILLE AVE AND LAKE SHORE BLVD 33 DISCHARGING OF FIREARM
160528345844 5-28 23:23 5000 NORMANDY BLVD 1050 TRAFFIC STOP
160528345835 5-28 23:22 3000 PHYLLIS ST 13 SUSPICIOUS PERSON
160528345778 5-28 23:21 13400 OLD ST AUGUSTINE RD 88 ASSAULT
160528345839 5-28 23:20 CASSAT AVE AND PLYMOUTH ST 1050 TRAFFIC STOP
160528345836 5-28 23:20 MONCRIEF RD AND AVENUE B 1050 TRAFFIC STOP
160528345737 5-28 23:19 200 SNOW GOOSE LN 63 DISPUTE
160528345789 5-28 23:18 300 MONUMENT RD 22 DOMESTIC
160528345793 5-28 23:18 16400 N VILLAGE GREEN DR 8 MISSING PERSON
160528345827 5-28 23:17 7200 MORSE AVE 13 SUSPICIOUS PERSON
160528345828 5-28 23:17 W BEAVER ST AND DEVOE ST 12 RECKLESS DRIVER
160528345830 5-28 23:16 S I295 EXPWY AND 103RD ST 1050 TRAFFIC STOP
160528345823 5-28 23:16 1500 W CARLOTTA RD 63 DISPUTE
160528345813 5-28 23:15 8500 S LAKE MARIETTA DR 9 THEFT
160528345829 5-28 23:15 7000 BEACH BLVD 76 ASSIST OTHER AGENCY
160528345807 5-28 23:15 1700 S MERIVALE RD 96 ASSIST MOTORIST
160528345753 5-28 23:14 3200 DIGNAN ST 63 DISPUTE
160528345826 5-28 23:14 8400 MANRESA AVE 90 FIREWORKS
160528345815 5-28 23:14 BLACKBURN ST AND BAYVIEW RD 64 NOISE COMPLAINT
160528345781 5-28 23:13 5200 S JANICE CIR 90 FIREWORKS
160528345825 5-28 23:13 1000 SUPERIOR ST 8 MISSING PERSON
160528345750 5-28 23:13 13000 S HIGHLAND GLEN WAY 2 22 DOMESTIC DISTURBANCE
160528345747 5-28 23:13 2900 THOMAS ST 63 DISPUTE
160528345782 5-28 23:12 1600 CANTERBURY ST 64 NOISE COMPLAINT
160528345808 5-28 23:11 1500 MORGAN ST 64 NOISE COMPLAINT
160528345816 5-28 23:11 JUSTINA RD AND MERRILL RD 33 DISCHARGING OF FIREARM
160528345752 5-28 23:10 2100 W 2ND ST 22 DOMESTIC
160528345794 5-28 23:10 11800 ATLANTIC BLVD 1 IMPAIRED/DRUNK DRIVER
160528345751 5-28 23:10 1700 DETROIT ST 64 NOISE COMPLAINT
160528345818 5-28 23:10 11000 FOURAKER 1050 TRAFFIC STOP
160528345814 5-28 23:09 1400 DUNN AVE 2 63 DISPUTE IMPAIRED/INTOXICATED
160528345786 5-28 23:09 6000 YOUNGERMAN CIR 1066 CANCEL
160528345743 5-28 23:09 1000 DANIEL ST 64 NOISE COMPLAINT
160528345817 5-28 23:09 2000 W BEAVER 13 SUSPICIOUS PERSON
160528345809 5-28 23:08 1100 W 13TH ST 8 MISSING PERSON
160528345710 5-28 23:05 8600 NUSSBAUM DR 2288 DOMESTIC DISPUTE WITH/ASSAULT
160528345804 5-28 23:04 2200 SAUL DR 0 63 ARMED DISPUTE
160528345796 5-28 23:04 4800 IRVINGTON AVE 33 DISCHARGING OF FIREARM
160528345803 5-28 23:03 2500 BLACKSHIRE RD 64 NOISE COMPLAINT
160528345801 5-28 23:02 PINE ACRES RD AND E KARISSA ANN PL 16 ROAD OBSTRUCTION
160528345784 5-28 23:02 8100 A C SKINNER PKWY 64 NOISE COMPLAINT
160528345799 5-28 23:01 400 E 45TH ST 64 NOISE COMPLAINT
160528345673 5-28 23:00 500 E BAY ST 95IDT IDENTITY THEFT TELESERVE